Weather History for Wahpeton, ND

Change the Weather History Date:

Monday, September 2, 2013

  Actual Average (KFFM) Record (KFFM)
Temperature  
Mean Temperature 56 °F -  
Max Temperature 71 °F 75 °F 95 °F (1960)
Min Temperature 41 °F 52 °F 37 °F (1974)
Degree Days  
Heating Degree Days 9    
Growing Degree Days 6 (Base 50)    
Moisture  
Dew Point 44 °F    
Average Humidity 64    
Maximum Humidity 93    
Minimum Humidity 31    
Precipitation  
Precipitation 0.00 in - - ()
Sea Level Pressure  
Sea Level Pressure 30.08 in    
Wind  
Wind Speed 3 mph (NE)    
Max Wind Speed 8 mph    
Max Gust Speed -    
Visibility 10 miles    
Events      
Averages and records for this station are not official NWS values.
T = Trace of Precipitation, MM = Missing Value Source: NWS Daily Summary

Daily Weather History Graph

Daily Weather History Graph

Search for Another Location

Airport:

Trip Planner

Search our weather history database for the weather conditions in past years. The results will help you decide how hot, cold, wet, or windy it might be!

Date:

Astronomy

Sep. 02, 2013 Rise Set
Actual Time 6:48 AM CDT 8:02 PM CDT
Civil Twilight 6:17 AM CDT 8:33 PM CDT
Nautical Twilight 5:40 AM CDT 9:10 PM CDT
Astronomical Twilight 5:00 AM CDT 9:50 PM CDT
Moon 4:00 AM CDT (9/2) 6:20 PM CDT (9/2)
Length of Visible Light 14h 16m
Length of Day
13h 14m
Waning Crescent, 8% of the Moon is Illuminated
Sep 2
Waning Crescent
Sep 5
New
Sep 12
First Quarter
Sep 19
Full
Sep 26
Last Quarter

Hourly Weather History & Observations

Time (CDT) Temp. Windchill Dew Point Humidity Pressure Visibility Wind Dir Wind Speed Gust Speed Precip Events Conditions
12:15 AM 51.8 °F - 44.6 °F 76% 30.06 in 10.0 mi NNE 4.6 mph - N/A   Clear
12:35 AM 51.8 °F - 44.6 °F 76% 30.06 in 10.0 mi NE 4.6 mph - N/A   Clear
12:55 AM 51.8 °F - 44.6 °F 76% 30.06 in 10.0 mi NE 3.5 mph - N/A   Clear
1:15 AM 51.8 °F - 46.4 °F 82% 30.07 in 10.0 mi NE 3.5 mph - N/A   Clear
1:35 AM 50.0 °F - 44.6 °F 82% 30.08 in 10.0 mi NNE 4.6 mph - N/A   Clear
1:55 AM 44.6 °F - 41.0 °F 87% 30.08 in 10.0 mi Calm Calm - N/A   Clear
2:15 AM 44.6 °F - 41.0 °F 87% 30.08 in 10.0 mi Calm Calm - N/A   Clear
2:35 AM 44.6 °F - 41.0 °F 87% 30.08 in 10.0 mi Calm Calm - N/A   Clear
2:55 AM 46.4 °F - 42.8 °F 87% 30.07 in 10.0 mi Calm Calm - N/A   Clear
3:15 AM 42.8 °F - 41.0 °F 93% 30.08 in 10.0 mi Calm Calm - N/A   Clear
3:35 AM 42.8 °F - 39.2 °F 87% 30.08 in 10.0 mi Calm Calm - N/A   Clear
3:55 AM 42.8 °F - 39.2 °F 87% 30.09 in 10.0 mi Calm Calm - N/A   Clear
4:15 AM 41.0 °F 39.0 °F 39.2 °F 93% 30.09 in 10.0 mi NW 3.5 mph - N/A   Clear
4:35 AM 41.0 °F 39.0 °F 37.4 °F 87% 30.10 in 10.0 mi NW 3.5 mph - N/A   Clear
4:55 AM 42.8 °F 41.1 °F 39.2 °F 87% 30.10 in 10.0 mi NNW 3.5 mph - N/A   Clear
5:15 AM 42.8 °F 41.1 °F 41.0 °F 93% 30.10 in 10.0 mi North 3.5 mph - N/A   Clear
5:35 AM 44.6 °F - 41.0 °F 87% 30.11 in 3.0 mi Calm Calm - N/A   Clear
5:55 AM 44.6 °F 43.1 °F 42.8 °F 93% 30.12 in 3.0 mi North 3.5 mph - N/A   Clear
6:15 AM 44.6 °F - 42.8 °F 93% 30.12 in 10.0 mi Calm Calm - N/A   Clear
6:35 AM 44.6 °F 42.2 °F 42.8 °F 93% 30.12 in 10.0 mi NNE 4.6 mph - N/A   Clear
6:55 AM 44.6 °F - 42.8 °F 93% 30.13 in 10.0 mi Calm Calm - N/A   Clear
7:15 AM 46.4 °F 45.2 °F 42.8 °F 87% 30.13 in 10.0 mi NNE 3.5 mph - N/A   Clear
7:35 AM 46.4 °F 43.5 °F 44.6 °F 93% 30.13 in 10.0 mi NNE 5.8 mph - N/A   Clear
7:55 AM 50.0 °F - 44.6 °F 82% 30.13 in 10.0 mi NNE 5.8 mph - N/A   Clear
8:15 AM 50.0 °F - 44.6 °F 82% 30.13 in 10.0 mi NNE 3.5 mph - N/A   Clear
8:35 AM 51.8 °F - 46.4 °F 82% 30.14 in 10.0 mi NNE 5.8 mph - N/A   Clear
8:55 AM 53.6 °F - 46.4 °F 77% 30.15 in 10.0 mi Calm Calm - N/A   Clear
9:15 AM 55.4 °F - 46.4 °F 72% 30.15 in 10.0 mi NNE 4.6 mph - N/A   Clear
9:35 AM 57.2 °F - 46.4 °F 67% 30.14 in 10.0 mi NE 5.8 mph - N/A   Clear
9:55 AM 59.0 °F - 46.4 °F 63% 30.14 in 10.0 mi NNE 6.9 mph - N/A   Clear
10:15 AM 59.0 °F - 46.4 °F 63% 30.14 in 10.0 mi North 4.6 mph - N/A   Clear
10:35 AM 60.8 °F - 46.4 °F 59% 30.13 in 10.0 mi NNE 8.1 mph - N/A   Clear
10:55 AM 62.6 °F - 46.4 °F 55% 30.13 in 10.0 mi NNW 3.5 mph - N/A   Scattered Clouds
11:15 AM 60.8 °F - 46.4 °F 59% 30.13 in 10.0 mi East 4.6 mph - N/A   Mostly Cloudy
11:35 AM 62.6 °F - 46.4 °F 55% 30.13 in 10.0 mi North 3.5 mph - N/A   Scattered Clouds
11:55 AM 62.6 °F - 46.4 °F 55% 30.13 in 10.0 mi NNE 6.9 mph - N/A   Scattered Clouds
12:15 PM 62.6 °F - 46.4 °F 55% 30.12 in 10.0 mi ENE 3.5 mph - N/A   Clear
12:35 PM 64.4 °F - 46.4 °F 52% 30.12 in 10.0 mi Calm Calm - N/A   Clear
12:55 PM 64.4 °F - 46.4 °F 52% 30.11 in 10.0 mi ENE 3.5 mph - N/A   Clear
1:15 PM 68.0 °F - 44.6 °F 43% 30.11 in 10.0 mi ENE 5.8 mph - N/A   Clear
1:35 PM 68.0 °F - 44.6 °F 43% 30.10 in 10.0 mi North 3.5 mph - N/A   Clear
1:55 PM 68.0 °F - 42.8 °F 40% 30.10 in 10.0 mi Calm Calm - N/A   Clear
2:15 PM 69.8 °F - 42.8 °F 38% 30.09 in 10.0 mi Calm Calm - N/A   Clear
2:35 PM 69.8 °F - 41.0 °F 35% 30.08 in 10.0 mi ESE 3.5 mph - N/A   Clear
2:55 PM 69.8 °F - 41.0 °F 35% 30.08 in 10.0 mi Calm Calm - N/A   Clear
3:15 PM 69.8 °F - 39.2 °F 33% 30.07 in 10.0 mi South 4.6 mph - N/A   Clear
3:35 PM 71.6 °F - 41.0 °F 33% 30.06 in 10.0 mi Calm Calm - N/A   Clear
3:55 PM 71.6 °F - 41.0 °F 33% 30.05 in 10.0 mi ESE 3.5 mph - N/A   Clear
4:15 PM 71.6 °F - 41.0 °F 33% 30.05 in 10.0 mi Calm Calm - N/A   Clear
4:35 PM 71.6 °F - 39.2 °F 31% 30.04 in 10.0 mi East 3.5 mph - N/A   Clear
4:55 PM 71.6 °F - 41.0 °F 33% 30.04 in 10.0 mi South 5.8 mph - N/A   Clear
5:15 PM 71.6 °F - 41.0 °F 33% 30.04 in 10.0 mi WSW 3.5 mph - N/A   Clear
5:35 PM 71.6 °F - 41.0 °F 33% 30.04 in 10.0 mi Calm Calm - N/A   Clear
5:55 PM 71.6 °F - 41.0 °F 33% 30.03 in 10.0 mi WSW 3.5 mph - N/A   Clear
6:15 PM 71.6 °F - 41.0 °F 33% 30.03 in 10.0 mi Calm Calm - N/A   Clear
6:35 PM 71.6 °F - 41.0 °F 33% 30.03 in 10.0 mi Calm Calm - N/A   Clear
6:55 PM 71.6 °F - 41.0 °F 33% 30.03 in 10.0 mi Calm Calm - N/A   Clear
7:15 PM 69.8 °F - 41.0 °F 35% 30.03 in 10.0 mi Calm Calm - N/A   Clear
7:35 PM 68.0 °F - 44.6 °F 43% 30.03 in 10.0 mi South 3.5 mph - N/A   Clear
7:55 PM 66.2 °F - 46.4 °F 49% 30.03 in 10.0 mi SSE 3.5 mph - N/A   Clear
8:15 PM 62.6 °F - 46.4 °F 55% 30.03 in 10.0 mi South 4.6 mph - N/A   Clear
8:35 PM 60.8 °F - 46.4 °F 59% 30.03 in 10.0 mi Calm Calm - N/A   Clear
8:55 PM 60.8 °F - 46.4 °F 59% 30.03 in 10.0 mi South 3.5 mph - N/A   Clear
9:15 PM 59.0 °F - 48.2 °F 67% 30.03 in 10.0 mi Calm Calm - N/A   Clear
9:35 PM 57.2 °F - 46.4 °F 67% 30.04 in 10.0 mi SE 3.5 mph - N/A   Clear
9:55 PM 55.4 °F - 46.4 °F 72% 30.04 in 10.0 mi Calm Calm - N/A   Clear
10:15 PM 55.4 °F - 46.4 °F 72% 30.04 in 10.0 mi SSE 4.6 mph - N/A   Clear
10:35 PM 55.4 °F - 44.6 °F 67% 30.03 in 10.0 mi SSE 5.8 mph - N/A   Clear
10:55 PM 55.4 °F - 46.4 °F 72% 30.03 in 10.0 mi SSE 5.8 mph - N/A   Clear
11:15 PM 53.6 °F - 46.4 °F 77% 30.03 in 10.0 mi SSE 3.5 mph - N/A   Clear
11:35 PM 53.6 °F - 46.4 °F 77% 30.03 in 10.0 mi SSE 3.5 mph - N/A   Clear
11:55 PM 53.6 °F - 46.4 °F 77% 30.02 in 10.0 mi SSE 4.6 mph - N/A   Clear